Regional Weather Roundup
Issued by NWS

Home | Current Version | Previous Version | Graphics & Text | Print | Product List | Glossary Off
Versions: 1 2 3 4 5 6 7 8 9 10 11 12 13 14 15 16 17 18 19 20 21 22 23 24 25 26 27 28 29 30 31 32 33 34 35 36 37 38 39 40 41 42 43 44 45 46 47 48 49 50

000
ASUS43 KTOP 260059
RWRKS

WEATHER ROUNDUP FOR KANSAS
NATIONAL WEATHER SERVICE GOODLAND KS
800 PM CDT SUN SEP 25 2016

NOTE:  "FAIR" INDICATES FEW OR NO CLOUDS BELOW 12,000 FEET WITH NO
SIGNIFICANT WEATHER AND/OR OBSTRUCTIONS TO VISIBILITY.

KSZ001>006-013>018-027>032-041>047-260200-
NORTHWEST KANSAS

CITY           SKY/WX    TMP DP  RH WIND       PRES   REMARKS
GOODLAND       CLEAR     55  34  45 N8        30.35R
HAYS           CLEAR     61  36  39 N8        30.26R
HILL CITY      CLEAR     54  40  59 N8        30.29R
RUSSELL        CLEAR     60  40  47 N9        30.24R
$$

KSZ061>065-074>080-084>089-260200-
SOUTHWEST KANSAS

CITY           SKY/WX    TMP DP  RH WIND       PRES   REMARKS
DODGE CITY     CLEAR     60  41  49 N8        30.28R
ELKHART          N/A     64  32  30 N6          N/A
GARDEN CITY    CLEAR     62  33  33 N9        30.30R
GREAT BEND     CLEAR     63  45  51 N8        30.25R
LIBERAL        CLEAR     66  30  26 N8        30.30R
$$

KSZ066>073-081>083-090>101-260200-
SOUTHEAST KANSAS

CITY           SKY/WX    TMP DP  RH WIND       PRES   REMARKS
CHANUTE        CLOUDY    63  60  90 NW5       30.17S
COFFEYVILLE    CLOUDY    62  59  90 N3        30.16S
HUTCHINSON     CLOUDY    65  53  65 N6        30.22R
MEDICINE LODGE   N/A     67  49  52 N3          N/A
NEWTON         PTCLDY   N/A N/A N/A NW5       30.22R
PARSONS        CLOUDY    62  59  90 N3        30.17F
WICHITA INTL   MOCLDY    66  56  70 NW3       30.21R
WICHITA JABRA  CLOUDY    65  57  75 NW3       30.20R
WICHITA MCCONL CLOUDY    64  55  72 N2        30.21R HAZE
WINFIELD       CLOUDY    63  57  81 NW3       30.22R
$$

KSZ007>012-019>026-033>040-048>060-102>105-260200-
NORTHEAST KANSAS

CITY           SKY/WX    TMP DP  RH WIND       PRES   REMARKS
CONCORDIA      CLEAR     62  42  47 NW7       30.22R
EMPORIA        CLOUDY    63  59  87 SW3       30.18R
LAWRENCE       CLOUDY    63  60  90 CALM      30.17R
MANHATTAN      PTCLDY    63  51  65 W3        30.19R
OLATHE IND     CLOUDY    63  57  81 W5        30.17R
OLATHE EXE     CLOUDY    62  56  80 NW3       30.16R
SALINA         CLEAR     64  48  56 NW7       30.22R
TOPEKA BILLARD PTCLDY    64  58  80 CALM      30.17R
TOPEKA FORBES  CLOUDY    64  59  83 S3        30.17R
$$




USA.gov is the U.S. government's official web portal to all federal, state and local government web resources and services.